This demonstration page uses our WeatherBlox Daily Observations layout. Learn more.

Left ArrowRight Arrow

Hourly Observations for May 30, 2017

Temp ( °F °C ) Dew Point ( °F °C ) Humidity (%) Winds ( mph kmh ) Pressure ( in mb ) Visibility ( mi km ) Precip ( " mm )
12:56 am 00:56 Clear 49 9.4 45 7.2 86 86 Calm 30.04 1017 10 16 0.00 0.00
1:56 am 01:56 Clear 47 8.2 45 7.1 93 93 Calm 30.04 1017 10 16 0.00 0.00
2:56 am 02:56 Clear 47 8.1 44 6.9 92 92 Calm 30.04 1017 10 16 0.00 0.00
3:56 am 03:56 Clear 48 8.9 46 7.7 92 92 Calm 30.04 1017 10 16 0.00 0.00
4:56 am 04:56 Partly Cloudy 47 8.2 46 7.6 96 96 W 3 6 30.05 1018 10 16 0.00 0.00
5:56 am 05:56 Sunny 47 8.6 46 7.5 93 93 Calm 30.06 1018 10 16 0.00 0.00
6:56 am 06:56 Sunny 50 9.9 48 8.7 92 92 Calm 30.06 1018 10 16 0.00 0.00
7:56 am 07:56 Mostly Sunny 57 13.8 48 9 73 73 SW 6 9 30.06 1018 10 16 0.00 0.00
8:56 am 08:56 Sunny 64 17.8 46 7.5 51 51 WNW 10 17 30.06 1018 10 16 0.00 0.00
9:56 am 09:56 Sunny 67 19.5 44 6.9 44 44 WNW 10 17 30.06 1018 10 16 0.00 0.00
10:56 am 10:56 Sunny 72 22.2 44 6.4 36 36 WNW 13 20 30.05 1018 10 16 0.00 0.00
11:56 am 11:56 Sunny 73 23 43 5.9 33 33 WNW 10 17 30.04 1017 10 16 0.00 0.00
12:56 pm 12:56 Sunny 75 24 41 4.9 29 29 WNW 12 19 30.03 1017 10 16 0.00 0.00
1:56 pm 13:56 Sunny 77 24.9 38 3.5 25 25 W 17 28 30.00 1016 10 16 0.00 0.00
2:56 pm 14:56 Sunny 78 25.5 39 4 25 25 WNW 14 22 29.99 1016 10 16 0.00 0.00
3:03 pm 15:03 Sunny 79 26 41 5 26 26 W 14 22 29.99 1016 10 16 0.00 0.00
3:56 pm 15:56 Sunny 78 25.8 38 3.1 23 23 NNW 8 13 29.98 1015 10 16 0.00 0.00
4:56 pm 16:56 Sunny 79 26.2 38 3.4 23 23 W 12 19 29.97 1015 10 16 0.00 0.00
5:56 pm 17:56 Sunny 79 25.9 38 3.2 23 23 WNW 17 28 29.96 1015 10 16 0.00 0.00
6:56 pm 18:56 Sunny 77 25 39 4.1 26 26 NW 12 19 29.96 1015 10 16 0.00 0.00
7:56 pm 19:56 Sunny 75 23.7 38 3.6 27 27 NNW 6 9 29.97 1015 10 16 0.00 0.00
8:56 pm 20:56 Clear 69 20.8 37 2.6 30 30 N 6 9 29.97 1015 10 16 0.00 0.00
9:56 pm 21:56 Clear 67 19.7 37 2.5 32 32 NNE 3 6 29.99 1016 10 16 0.00 0.00
10:56 pm 22:56 Clear 55 12.6 48 8.7 77 77 Calm 30.00 1016 10 16 0.00 0.00
11:56 pm 23:56 Clear 53 11.4 46 7.9 79 79 Calm 30.02 1017 10 16 0.00 0.00

Powered by AerisWeather